Location: Cran-Gévrier
(45.9039°N, 6.1012°E)
Time: 18:58:27
(UTC+00:00)

FENGYUN 1C DEB - Visible Passes

Search period start: 02 March 2024 00:00
Search period end: 12 March 2024 00:00
Orbit: 712 x 918 km, 98.4° (Epoch: 02 March)

Date Brightness Start Highest point End Pass type
(mag) Time Alt. Az. Time Alt. Az. Time Alt. Az.
03 Mar ? 05:21:58 10° NNE 05:27:02 46° E 05:31:48 10° S visible
03 Mar ? 18:28:22 10° WSW 18:31:29 15° W 18:34:36 10° NW visible
04 Mar ? 05:00:09 10° NNE 05:04:42 30° E 05:09:01 10° SSE visible
04 Mar ? 18:04:37 10° SW 18:09:04 22° W 18:13:28 10° NW visible
05 Mar ? 04:38:39 10° NE 04:42:16 19° E 04:45:46 10° SE visible
06 Mar ? 04:17:58 10° ENE 04:19:46 12° E 04:21:32 10° ESE visible
07 Mar ? 18:41:32 10° WSW 18:43:06 11° W 18:44:41 10° WNW visible
08 Mar ? 05:11:24 10° NNE 05:16:07 37° E 05:20:38 10° SSE visible
08 Mar ? 18:16:53 10° SW 18:20:38 18° W 18:24:20 10° NW visible
09 Mar ? 04:49:41 10° NE 04:53:44 24° E 04:57:38 10° SE visible
09 Mar ? 17:53:29 10° SSW 17:58:15 26° W 18:02:56 10° NW visible
10 Mar ? 04:28:27 10° NE 04:31:17 15° E 04:34:01 10° ESE visible
